User: anonymous   Login
Location: Monroe
(41.9160°N, 83.3980°W)
Time: 12:03:51
(UTC-04:00)
Language:

ISS - Orbit

View from above orbital plane
View from above orbital plane
View from above satellite
View from above satellite

Ground track
Ground track

The orbit data is extracted from the following two-line orbital elements,

1 25544U 98067A   15142.58325433  .00014156  00000-0  21261-3 0  9998
2 25544 051.6447 211.8711 0003938 331.3802 133.0237 15.55155344944052
Epoch (UTC): 22 May 2015 13:59:53
Eccentricity: 0.0003938
inclination: 51.6447°
perigee height: 399 km
apogee height: 404 km
right ascension of ascending node: 211.8711°
argument of perigee: 331.3802°
revolutions per day: 15.55155344
mean anomaly at epoch: 133.0237°
orbit number at epoch: 94405

The dashed part of the orbit path shows where the satellite is in the earth's shadow,  

DLR